Showing default

LEMUR-2 CALLUM-K-J, 67366

Orbit data source: Space-Track

LEMUR-2 CALLUM-K-J, 67366 is a payload satellite owned by Spire/Lux (US) in SSO that was launched on Sun, 11 Jan 2026 UTC via an FALCON 9 launch vehicle from the Air Force Western Test Range (AFWTR). Payload-class satellites include a variety of spacecraft equipped with specific instruments for various scientific and technological missions. These include communications satellites like Starlink; space stations such as the ISS; scientific satellites like the Hubble; Earth observation satellites from companies like Planet Labs, Umbra, and HawkEye 360; GPS; miniature CubeSats for education and research; and military/defense satellites.

Loading next visibility...
Identifier
67366, 2026-004D
Orbit
SSO
Country
Flag of USUS
Related business
Manufacturer
Spire/Glasgow
Mission
Operational Amateur Astronomy
Bus & Motor
CUBESAT 3U, Unknown motor
Mass
4.6 kg wet, 4.6 kg dry
Launch date (UTC)
2026-01-11 (4 months ago)
Launch vehicle
FALCON 9
Launch site
Air Force Western Test Range (AFWTR)
Object type
Payload
Rocket body
Debris
Shape & HBR
Box + 2 Pan, 0.1 m
Radar Cross Section
0.072 m²

Expand to show TLE details & history
Last TLE update: 6 hours ago

TLE from 6 hours ago
0 LEMUR-2 CALLUM-K-J
1 67366U 26004D   26146.54888429  .00004714  00000-0  51846-3 0  9990
2 67366  97.8014 145.4531 0008093 195.4133 164.6838 14.88049508 20070
Epoch: 2026-05-26T13:10Z
TLE epoch observation values (Epoch: 2026-05-26T13:10:23.602Z)
Latitude
-0.00007°
Longitude
63.73403°
Altitude
612.517 km
Speed
7.55 km/s
True Right ascension
09h 41m 48s
True Declination
0° 00' 00"
Sunlit
Object was in daylight at epoch
Visualization orbit readout
Latitude
Unknown
Longitude
Unknown
Altitude
Unknown
Speed
Unknown
Apparent Right ascension
Unknown
Apparent Declination
Unknown
Sunlit
N/A
Visualization observer readout
Local Sidereal Time
04:32:34
Azimuth
Unknown
Elevation
Unknown
Doppler factor
Unknown
Orbital elements
Apogee altitude
606.704 km
Perigee altitude
595.408 km
Semi-major axis
6,979.193 km
Eccentricity
0.00081
Inclination
97.8014°
RAAN
145.4531°
Arg. of periapsis
195.4133°
True anomaly
164.70827°
Mean anomaly
164.6838°
Eccentric anomaly
164.69604°
Mean motion
3.72251 °/min
Orbital period
96.71 mins
BSTAR
0.00051846
Loading maneuver chart data...
Computing Atmospheric mass density...
Loading historical data...
Loading historical data...
Loading historical data...
Loading historical data...
Loading historical data...
Loading historical data...
Loading historical data...

Documentation

Showing up to 5 results
|